Location: Unspecified
(54.1780°N, 0.0000°E)
Time: 00:36:21
(UTC+00:00)

Tiros 1 - Pass Details

Date: 19 June 2019
Orbit: 630 x 664 km, 48.4° (Epoch: 22 July)

Event Time Altitude Azimuth Distance (km) Brightness Sun altitude
Rises 04:52:32 0° 270° (W) 2,926 10.0 9.4°
Reaches altitude 10° 04:55:03 10° 260° (W) 2,013 9.1 9.7°
Maximum altitude 04:59:06 31° 199° (SSW) 1,118 8.1 10.3°
Drops below altitude 10° 05:03:08 10° 138° (SE) 2,005 10.0 10.8°
Sets 05:05:39 0° 128° (SE) 2,911 10.9 11.1°
